Simultaneous Nadir Overpasses (SNOs) Predictions

Prediction of SNOs between LANDSAT-8 and METOP-B Satellite Orbit:

Table of predicted SNOs for the next 14.0 days since TLE Epoch: 5/15/2021
Index Date (LANDSAT-8) Time (LANDSAT-8) Lat,Lon (LANDSAT-8) SZA (LANDSAT-8 ) Date (METOP-B) Time (METOP-B) Lat,Lon (METOP-B) SZA (METOP-B ) Distance(km) Time Diff (sec)
1 05/17/2021 17:36:42 -81.10, 135.42 116.19 05/17/2021 17:36:09 -81.10, 135.32 116.21 1.76 33
2 05/17/2021 18:26:07 81.13, -56.50 63.88 05/17/2021 18:26:47 81.13, -56.31 63.92 3.28 40
3 05/20/2021 13:10:59 -81.10,-158.12 116.78 05/20/2021 13:10:34 -81.10,-158.30 116.82 3.20 25
4 05/20/2021 14:00:24 81.13, 9.93 63.28 05/20/2021 14:01:12 81.13, 10.01 63.31 1.42 48
5 05/23/2021 08:45:15 -81.12, -91.33 117.29 05/23/2021 08:44:57 -81.12, -91.20 117.28 2.34 18
6 05/23/2021 09:34:41 81.12, 76.33 62.72 05/23/2021 09:35:37 81.13, 76.32 62.74 0.39 56
7 05/26/2021 04:19:31 -81.12, -24.95 117.81 05/26/2021 04:19:21 -81.12, -24.86 117.80 1.50 10
8 05/26/2021 05:08:56 81.14, 143.07 62.25 05/26/2021 05:10:00 81.14, 142.99 62.27 1.53 64



Historial Predications of SNOs between LANDSAT-8 and METOP-B
